Home   Weather   Memphis   Past weeks

Flag for USA Past Weather in Memphis, Tennessee, USA — Yesterday and Last 2 Weeks

Now
83 °F

Clear.


Feels Like: 91 °F
Forecast: 79 / 95 °F
Wind: 3 mph from Southwest

Location: Memphis International Airport

Current Time: Jul 22, 2017 at 2:01:38 am

Latest Report: Jul 22, 2017 at 12:54 am


Visibility: 10 mi

Pressure: 29.95 "Hg

Humidity: 79%

Dew Point: 76 °F

Location of MemphisLocation

Past Weather in Memphis — Graph

°F

Memphis Temperature Yesterday

Maximum temperature yesterday: 98 °F (at 2:54 pm)
Minimum temperature yesterday: 80 °F (at 2:54 am)
Average temperature yesterday: 89 °F

High & Low Weather Summary for the Past Weeks

 TemperatureHumidityPressure
High98 °F (Jul 21, 2:54 pm)100% (Jul 7, 1:54 am)30.15 "Hg (Jul 7, 1:54 am)
Low71 °F (Jul 9, 4:54 am)39% (Jul 9, 12:54 pm)29.92 "Hg (Jul 16, 5:54 pm)
Average84 °F70%30.03 "Hg
* Reported Jul 6 10:54 pm — Jul 21 10:54 pm, Memphis. Weather by CustomWeather, © 2017

Note: Actual official high and low records may vary slightly from our data, if they occured in-between our weather recording intervals... More about our weather records

Advertising

Memphis Weather History for the Previous 24 Hours

Scroll right to see more
 ConditionsComfort  
Time TempWeatherWind HumidityBarometerVisibility
10:54 pm
Fri, Jul 21
86 °FClear.5 mph70%29.96 "Hg10 mi
9:54 pm85 °FClear.6 mph75%29.96 "Hg10 mi
8:54 pm89 °FClear.3 mph65%29.94 "Hg10 mi
7:54 pm89 °FPassing clouds.3 mph63%29.93 "Hg10 mi
6:54 pm93 °FPassing clouds.5 mph52%29.94 "Hg10 mi
5:54 pm95 °FPassing clouds.8 mph49%29.93 "Hg10 mi
4:54 pm97 °FPartly sunny.7 mph48%29.95 "Hg10 mi
3:54 pm98 °FBroken clouds.6 mph46%29.96 "Hg10 mi
2:54 pm98 °FBroken clouds.9 mph48%29.98 "Hg10 mi
1:54 pm95 °FScattered clouds.7 mph52%30.00 "Hg10 mi
12:54 pm96 °FPartly sunny.7 mph51%30.01 "Hg10 mi
11:54 am92 °FScattered clouds.5 mph62%30.02 "Hg10 mi
10:54 am93 °FPassing clouds.6 mph62%30.03 "Hg10 mi
9:54 am91 °FPassing clouds.7 mph66%30.03 "Hg10 mi
8:54 am89 °FPassing clouds.3 mph70%30.05 "Hg10 mi
7:54 am85 °FPassing clouds.No wind80%30.04 "Hg10 mi
6:54 am81 °FScattered clouds.No wind85%30.02 "Hg10 mi
5:54 am80 °FPassing clouds.No wind87%30.01 "Hg10 mi
4:54 am80 °FClear.No wind87%29.99 "Hg10 mi
3:54 am81 °FClear.No wind85%30.00 "Hg10 mi
2:54 am80 °FClear.3 mph90%29.99 "Hg10 mi
Weather by CustomWeather, © 2017

See weather overviewHow to use our weather pages